Current weather by "City, St" or "zip code"  
 

Current Conditions: TAYLOR

Clear


48.2 F

Last Updated on May 26 2024, 12:35 AM MST
Humidity: 40%
Wind Speed: 3.4 mph
Barometer 30.08 in
Dewpoint: 24.8 F
Visibility: 10.00 mi
Precip: --
Heat Index: NA
Wind Chill: 47.3 F
Current conditions at:

TAYLOR (KTYL)

Lat: 34.45 Lon: 110.12

active severe weather and emergency alerts image image weather storm and storm spotter reports image weather observation monitoring service image
Active
Alerts
Storm Reports Obs
Monitoring

Sign-up For Email & Text Message Weather Alert Notification Services



Advertise Here

Observation History for TAYLOR


Time Wind
(mph)
Vis
(mi)
Weather Precip (in) Temperature (F) Relative
Humidity
Wind
Chill
(F)
Heat
Index
(F)
Pressure
Air Dwpt altimeter
(in)
sea level
(mb)
Rmks
12:35 AM MST 3.4 10.00 Clear -- 48.2 24.8 40% 47.3 NA 30.08 1018.6
11:55 PM MST 10.00 Clear -- NULL % NA NA M
09:35 PM MST 5.7 10.00 Clear -- 55.4 24.8 30% NA NA 30.09 1019.0
09:15 PM MST SW 12.7 10.00 Clear -- 57.2 24.8 29% NA NA 30.07 1018.3
08:35 PM MST 4.6 10.00 Clear -- 57.2 24.8 29% NA NA 30.07 1018.3
07:35 PM MST SW 11.5 10.00 Clear -- 62.6 23.0 22% NA NA 30.05 1017.6
07:15 PM MST 16.1 10.00 Clear -- 64.4 23.0 20% NA NA 30.03 1016.9
06:55 PM MST 10.00 Clear -- NULL % NA NA M
06:35 PM MST SW 19.6 10.00 Clear and Windy -- 66.2 23.0 19% NA NA 30.01 1016.3
06:15 PM MST SW 23.0 10.00 Clear and Windy -- 68.0 21.2 17% NA NA 30.00 1015.9
04:35 PM MST 24.2 10.00 Clear and Windy -- 71.6 21.2 15% NA 69.1 29.98 1015.2
04:15 PM MST SW 26.5 10.00 Clear and Breezy -- 71.6 21.2 15% NA 69.1 29.97 1014.9
03:55 PM MST 10.00 Clear -- NULL % NA NA M
03:35 PM MST W 18.4 10.00 Clear -- 73.4 23.0 15% NA 71.1 29.97 1014.9
02:35 PM MST SW 26.5 10.00 Clear and Breezy -- 73.4 21.2 14% NA 71.1 29.98 1015.2
02:15 PM MST 19.6 10.00 Windy -- 73.4 23.0 15% NA 71.1 29.98 1015.2
01:35 PM MST 10.00 Clear -- 73.4 23.0 15% NA 71.1 29.98 1015.2
01:15 PM MST 21.9 10.00 Clear and Windy -- 73.4 24.8 16% NA 71.2 29.98 1015.2
12:35 PM MST 26.5 10.00 Clear and Breezy -- 73.4 23.0 15% NA 71.1 29.98 1015.2
12:15 PM MST SW 21.9 10.00 Clear and Windy -- 73.4 24.8 16% NA 71.2 29.98 1015.2
11:35 AM MST SW 29.9 10.00 Clear and Breezy -- 71.6 24.8 17% NA 69.3 29.98 1015.2
11:15 AM MST SW 23.0 10.00 Clear and Windy -- 69.8 23.0 17% NA NA 29.99 1015.6
10:35 AM MST 20.7 10.00 Clear and Windy -- 69.8 24.8 18% NA NA 29.99 1015.6
09:35 AM MST 28.8 10.00 Clear and Breezy -- 66.2 24.8 21% NA NA 29.97 1014.9

Regional Weather Observation


()


F

WINSLOW (KINW)

Clear
59.0 F

()


F

SPRINGERVILLE (KJTC)

Clear
50.0 F

PAYSON (KPAN)

Clear
51.8 F

SEDONA (KSEZ)

Clear
60.8 F

Advertise Here


Advertise Here